Starlink 11454

operational
NORAD ID: 62059 Int'l Des: 2024-217 Owner: SPXS Country: US Constellation: starlink
LEOCIRCULAR

About Starlink 11454

Description loading...

Live Position

Loading 3D Globe...

Upcoming Passes

Altitude History

Altitude vs Time

uPlot chart will show altitude changes over time

Two-Line Element Set

1 62059U 24217C 25348.89434270 .00073776 00000-0 60730-3 0 9996
2 62059 53.1567 129.4030 0001033 144.0685 216.0402 15.69753864 61854
Epoch: Dec 14, 2025 • Age: 13 hours

Current Status

Altitude 365.5 km
Velocity 7.70 km/s
Sub-Earth Point 52.81°N, 29.01°W
Launch Date Nov 24, 2024
Age 1 years
Type internet

Technical Details

Classification Payload
Mass 960.00 kg
Dry Mass 910.00 kg
Total Mass 960.00 kg
Length 0.30 m
Diameter 4.10 m
Span 29.00 m
Shape Box + pan
Manufacturer SPXS
Bus Type Starlink V2MD
Phase Status In Orbit
Owner/State SPXS/US

Large Constellations

Loading constellations...